FENGYUN 1C DEB, 32136

Orbit data source: Space-Track

FENGYUN 1C DEB, 32136 is space debris in SSO originally from a launch on Mon, 10 May 1999 UTC launched from the Taiyaun Space Center, China (TSC). Fengyun 1C debris stems from the Chinese weather satellite Fengyun-1C, which was intentionally destroyed by a Chinese anti-satellite missile in 2007. This event dramatically increased the amount of space debris, with thousands of trackable fragments posing hazards to satellites and human spaceflight. The Fengyun 1C debris cloud has become a focal point in discussions about space sustainability and the need for international regulations to prevent the creation of new debris.

Loading next visibility...
Identifier
32136, 1999-025CSE
Orbit
SSO
Country
Flag of CNCN / PRC
Related business
Manufacturer
Unknown
Mission
Spacecraft
Bus & Motor
Unknown
Mass
Unknown
Launch date (UTC)
1999-05-10 (27 years ago)
Launch vehicle
Unknown
Launch site
Taiyaun Space Center, China (TSC)
Object type
Payload
Rocket body
Debris
Shape & HBR
Unknown shape, 0.1 m
Radar Cross Section
Small (<0.1 m²)

Expand to show TLE details & history
Last TLE update: 3 weeks ago

TLE from 3 weeks ago
0 FENGYUN 1C DEB
1 32136U 99025CSE 26140.71877861  .00000854  00000-0  28523-3 0  9998
2 32136  98.2711 138.0153 0067655  56.9789 303.7875 14.38547155673753
Epoch: 2026-05-20T17:15Z
TLE epoch observation values (Epoch: 2026-05-20T17:15:02.471Z)
Latitude
-0.00008°
Longitude
0.88071°
Altitude
739.609 km
Speed
7.499 km/s
True Right ascension
09h 12m 03s
True Declination
0° 00' 00"
Sunlit
Object was in daylight at epoch
Visualization orbit readout
Latitude
Unknown
Longitude
Unknown
Altitude
Unknown
Speed
Unknown
Apparent Right ascension
Unknown
Apparent Declination
Unknown
Sunlit
N/A
Visualization observer readout
Local Sidereal Time
20:54:08
Azimuth
Unknown
Elevation
Unknown
Doppler factor
Unknown
Orbital elements
Apogee altitude
808.712 km
Perigee altitude
712.12 km
Semi-major axis
7,138.553 km
Eccentricity
0.00677
Inclination
98.2711°
RAAN
138.0153°
Arg. of periapsis
56.9789°
True anomaly
303.14014°
Mean anomaly
303.7875°
Eccentric anomaly
303.46412°
Mean motion
3.59855 °/min
Orbital period
100.04 mins
BSTAR
0.00028523
Loading maneuver chart data...
Computing Atmospheric mass density...
Loading historical data...
Loading historical data...
Loading historical data...
Loading historical data...
Loading historical data...
Loading historical data...
Loading historical data...

Documentation

Showing up to 5 results
|